Regional Weather Roundup
Issued by NWS Wakefield, VA

Home | Current Version | Previous Version | Graphics & Text | Print | Product List | Glossary On
Versions: 1 2 3 4 5 6 7 8 9 10 11 12 13 14 15 16 17 18 19 20 21 22 23 24 25 26 27 28 29 30 31 32 33 34 35 36 37 38 39 40 41 42 43 44 45 46 47 48 49 50
000
ASUS41 KAKQ 191810
RWRAKQ

REGIONAL WEATHER ROUNDUP
NATIONAL WEATHER SERVICE WAKEFIELD VA
200 PM EDT SUN OCT 19 2014

Note: "fair" indicates few or no clouds below 12,000 feet with no
significant weather and/or obstructions to visibility. * = Denotes
station may not report precipitation (e.g., rain,snow,etc.),
thunder or fog.

VAZ042-051-052>054-056-191900-
NORTHERN VIRGINIA

CITY           SKY/WX    TMP DP  RH WIND       PRES   REMARKS
WASH NATIONAL  MOSUNNY   60  30  32 NW13G18   30.06F
DULLES         MOSUNNY   56  32  40 MISG      30.06F
FORT BELVOIR   SUNNY     58  30  34 NW15G24   30.06F
QUANTICO       SUNNY     59  29  31 NW18G28   30.07F
FREDERICKSBRG* SUNNY     61  33  34 NW8G16    30.05F
STAFFORD*      SUNNY     58  31  34 NW12G25   30.10F
WARRENTON      SUNNY     61  39  44 W17       30.06F
CULPEPER*      SUNNY     61  30  31 NW7       30.07F
MANASSAS*      SUNNY     57  30  35 NW13G25   30.07F
LEESBURG*      SUNNY     55  36  47 NW14G20   30.07S
WINCHESTER     SUNNY     57  27  30 N10G22    30.07F
FRONT ROYAL*   CLEAR     55  32  41 NW7       30.07F
LURAY*         CLEAR     61  32  33 W6G18     30.07F
$$

VAZ048-049-060>072-079>083-191900-
CENTRAL AND SOUTH CENTRAL VIRGINIA...AND NORTH CENTRAL NORTH CAROLINA

CITY           SKY/WX    TMP DP  RH WIND       PRES   REMARKS
RICHMOND       SUNNY     62  30  29 W12G22    30.05F
CHESTERFIELD*  CLEAR    N/A N/A N/A NW13G25   30.06F
PETERSBURG*    SUNNY     62  32  32 N12G18    30.05F
HANOVER        SUNNY     61  31  32 NW14      30.07F
TAPPAHANNOCK*  SUNNY     60  26  26 NW8G20    30.05F
CHARLOTTSVILLE SUNNY     60  32  34 N7        30.07F
ORANGE*        SUNNY     61  30  31 W7G17     30.09S
LOUISA*        SUNNY     63  30  29 NW13G18   30.06F
FARMVILLE*     SUNNY     63  36  36 W8        30.05F
CREWE*         CLEAR     62  34  34 NW12G17   30.06F
FORT PICKETT*  CLEAR     62  35  37 NW10G20   30.06F
LUNENBURG*     CLEAR     62  40  43 NW5       30.06F
SOUTH HILL*    SUNNY     64  39  39 NW5G16    30.12F
LAWRENCEVILLE* CLEAR     62  38  41 NW7G21    30.05F
ROANOKE RAPIDS CLEAR     61  41  48 NW5       30.06F
RALEIGH        SUNNY     61  39  44 VRB5      30.08F
$$

VAZ088>098-191900-
SOUTHEAST VIRGINIA

CITY           SKY/WX    TMP DP  RH WIND       PRES   REMARKS
NORFOLK        SUNNY     61  35  37 VRB7      30.02F
VIRGINIA BEACH MOSUNNY   63  37  38 N17G25    30.02S
NORFOLK NAVAL  MOSUNNY   63  36  36 NW18G28   30.04F
WEST POINT*    SUNNY     62  26  25 W8G23     30.06F
NEWPORT NEWS   SUNNY     63  33  32 NW20G28   30.03F
LANGLEY AFB    SUNNY     61  37  40 NW15G24   30.02F
FORT EUSTIS    SUNNY     61  37  40 NW14G21   30.02F
WILLIAMSBURG*  SUNNY     66  37  34 NW16      30.04F
HR EXEC AP*    CLEAR     61  39  44 NW12G20   30.05F
FRANKLIN*      SUNNY     63  30  29 NW6       30.05S
WAKEFIELD      SUNNY     62  31  31 NW10G20   30.05F
$$

VAZ020-022-025-037-045-191900-
WEST CENTRAL AND SOUTHWEST VIRGINIA

CITY           SKY/WX    TMP DP  RH WIND       PRES   REMARKS
STAUNTON*      SUNNY     60  26  27 NW8       30.09F
HOT SPRINGS VA SUNNY     46  31  56 NW16      30.08F
LYNCHBURG      SUNNY     60  35  39 NW8G17    30.09F
DANVILLE       SUNNY     64  37  36 N12       30.09F
SOUTH BOSTON*  NOT AVBL
MARTINSVILLE   SUNNY     64  35  34 N9        30.12F
ROANOKE        SUNNY     59  33  37 W14G20    30.12F
BLACKSBURG     SUNNY     55  43  62 W9        30.15F
DUBLIN*        SUNNY     55  37  50 NW6       30.16F
MARION*        SUNNY     55  38  53 W13       30.18F
HILLSVILLE*    SUNNY     51  36  56 NW9       30.14F
RICHLANDS*     CLEAR     51  38  60 W7        30.19F
WISE*          SUNNY     54  36  50 CALM      30.19F
ABINGDON*      SUNNY     56  38  51 CALM      30.18F
$$

MDZ021>025-VAZ099-100-191900-
SOUTHERN MARYLAND AND THE DELMARVA PENINSULA

CITY           SKY/WX    TMP DP  RH WIND       PRES   REMARKS
PATUXENT RIVER MOSUNNY   57  29  34 NW18G25   30.04S
BAY BRIDGE APT   N/A     55  30  38 NW14G20   30.02F
LEONARDTOWN    SUNNY     55  30  38 NW12G18   30.05F
DOVER          SUNNY     55  34  45 NW16G25   29.96S
GEORGETOWN     SUNNY     56  32  40 NW12G22   29.99S
EASTON         SUNNY     57  36  44 N17       30.05F
CAMBRIDGE      SUNNY     55  32  41 NW16G22   30.02R
SALISBURY      MOSUNNY   58  34  40 W15G29    29.99F
OCEAN CITY     PTSUNNY   55  35  47 NW16G25   29.98F
WALLOPS ISLAND SUNNY     58  36  43 NW21G29   29.99F
ACCOMACK*      MOSUNNY   55  34  44 NW20G30   30.02R
$$

NCZ012>017-030>032-191900-
EASTERN NORTH CAROLINA

CITY           SKY/WX    TMP DP  RH WIND       PRES   REMARKS
ELIZABETH CITY MOSUNNY   65  41  41 NW13G21   30.03F
AHOSKIE*       SUNNY     61  38  43 NW5       30.06F
EDENTON*       SUNNY     64  41  42 NW13G21   30.04F
CURRITUCK*     SUNNY     62  35  37 NW13      30.03S
KILL DEVIL HLS MOSUNNY   62  40  45 W9        30.01S
MANTEO         MOSUNNY   61  41  47 NW13G18   30.03S
CAPE HATTERAS  SUNNY     63  45  51 NW9G17    30.02F
TARBORO*       CLEAR     65  40  40 NW8       30.06F
GOLDSBORO      SUNNY     64  44  48 N14       30.05F
WASHINGTON     SUNNY     63  40  43 NW7G17    30.06S
GREENVILLE     SUNNY     64  41  42 N8        30.07F
NEW BERN       SUNNY     67  41  38 NW15      30.06F
WILMINGTON     SUNNY     66  43  43 N12G24    30.05F
$$

VAZ048-191900-
ELSEWHERE

CITY           SKY/WX    TMP DP  RH WIND       PRES   REMARKS
HARRISBURG PA  MOSUNNY   53  29  39 NW14      30.02F
BALTIMORE      SUNNY     56  31  38 NW18G25   30.02F
ANNAPOLIS      SUNNY     56  33  42 NW13      30.02F
ANDREWS AFB    SUNNY     56  30  37 W16G26    30.03F
WILMINGTON DE  SUNNY     54  30  40 NW20G30   30.00F
PHILADELPHIA   MOSUNNY   55  27  34 NW20      29.98S
WILDWOOD NJ*   MOSUNNY   54  34  47 NW15G29   29.97S
ATLANTIC CITY  MOSUNNY   56  33  42 NW20G29   29.93S
HENDERSON NC   SUNNY     61  36  39 N9        30.07F
GREENSBORO     MOSUNNY   63  39  41 VRB5      30.09F
ROCKY MOUNT    SUNNY     64  40  41 NW13      30.07F
FAYETTEVILLE   SUNNY     66  41  40 N6        30.08F
CHARLOTTE      MOSUNNY   65  39  38 W5        30.11F
$$

VAZ100-191900-
MARINE

STATION/POSITION TIME  TEMP    WIND        PRES    WAVE   SWELL
                       AIR SEA DIR/SP/G            HT/PER HT/PER
                 (UTC) (F)     (DEG/KT/KT) (MB)    (FT/S) (FT/S)
44066 TX TWR #4  1800   56 66  320/ 21/ 27 1009.8R   8/ 6   3/11
CAPE MAY NJ      1800   55 66  330/ 11/ 18 1014.1S
LEWES DE         1800   53 63  300/ 25/ 28 1014.7R
15NM E FENWICK I 1800   55 66  300/ 21/ 27 1013.8S   5/ 6   2/11
OCEAN-CITY-INLET 1800   55 64  330/ 15/ 21 1014.6S
WACHAPREAGUE VA  1800   56 63  310/  9/ 24 1016.2R
THOMAS POINT MD  1800   54 64  310/ 19/ 22 1017.3F
GOOSES REEF MD   1800   54     330/ 17/ 23 1017.5S
COVE POINT MD    1800   53     340/ 19/ 23 1016.8F
SOLOMONS ISLAND  1800      67                N/A
BISHOPS HEAD MD  1800   54 56  310/ 18/ 24 1016.4R
PINEY POINT MD   1800          340/ 20/ 22   N/A
POTOMAC MD       1700   55     310/ 19/ 27 1016.6F
CAMBRIDGE MD     1800   54 64  300/ 16/ 22 1016.3R
LEWISETTA VA     1800   55 64  330/ 20/ 29 1017.0S
RAPPAHANNOCK LGT 1800          320/ 23/ 28 1017.0S
STINGRAY PT      1800   57     310/ 21/ 27 1017.2F
YORK RVR RNG VA  1800   58     330/ 19/ 24 1016.3F
YORKTOWN VA      1800   58 68  320/ 20/ 23 1016.4F
JAMESTOWN VA     1800   57     350/ 16/ 21   N/A
DOMINION TERM VA 1800   58     310/ 19/ 22 1016.5F
KIPTOPEKE VA     1800      68  320/ 19/ 27   N/A
CHES BAY BRIDGE  1800   57 68  310/ 18/ 23 1016.2F
CHESAPEAKE LGHT  1700   56     330/ 24/ 26 1016.7F
WILLOUBY STN VA  1800   58     310/ 19/ 21 1015.3F
S CRANEY ISL VA  1800          290/ 14/ 22 1016.5S
CAPE HENRY BUOY  1800      70                N/A     5/ 5   2/13
1ST LANDING BUOY 1800   58     320/ 21/ 27 1016.5R
CAPE CHARLES BUO 1800      70                N/A     4/ 3   2/13
64NM E OF VA BCH 1800   59 70  320/ 25/ 29 1014.4R   8/ 7   2/11
DUCK PIER NC     1800   58 71  330/ 17/ 22 1015.6S
44100 DUCK FRF   1800      71                N/A     6/ 6   2/11
44056 DUCK FRF   1800                        N/A     5/ 6   2/12
OREGON INLET NC  1800   59 71  320/ 12/ 17 1016.5S
HATTERAS NC      1800   60 68  320/ 19/ 22 1016.9F
DIAMOND SHLS NC  1800   61     320/ 21/ 25 1016.0    5/ 5   2/11
CAPE LOOKOUT NC  1700   61     340/ 14/ 18 1017.4F
$$



USA.gov is the U.S. government's official web portal to all federal, state and local government web resources and services.